Flag for Australia Weather past 2 weeks in Albury, New South Wales, Australia

Now
46 °F

Mostly cloudy.


Feels Like: 45 °F
Forecast: 47 / 57 °F
Wind: 3 mph from Northeast

Location: Albury Airport

Current Time: Jul 24, 2014 at 12:26:51 PM

Latest Report: Jul 24, 2014 at 11:00 AM


Visibility: N/A

Pressure: 30.09 "Hg

Humidity: 93%

Dew point: 45 °F

Location of AlburyLocation

Historic Weather in Albury — Graph

°F

Albury temperature yesterday

Maximum temperature yesterday: 57 °F (at 3:00 PM)
Minimum temperature yesterday: 32 °F (at 2:00 AM)
Average temperature yesterday: 43 °F

Past Weeks' High & Low Weather Summary

 TemperatureHumidityPressure
High57 °F (Jul 16, 2:00 PM)100% (Jul 9, 6:00 PM)30.51 "Hg (Jul 9, 6:00 PM)
Low28 °F (Jul 19, 7:00 AM)51% (Jul 18, 1:00 PM)29.47 "Hg (Jul 9, 2:00 PM)
Average44 °F87%30.13 "Hg
* Reported Jul 9 10:00 AM — Jul 24 10:03 AM, Albury, Weather by CustomWeather, © 2014

Note: Actual official high and low records may vary slightly from our data, if they occured in-between our weather recording intervals... More about our weather records

Advertising

Albury weather history for previous 24 hours

 ConditionsComfort  
Time TempWeatherWind HumidityBarometerVisibility
10:03 AM
Jul 24
43 °FBroken clouds.6 mph100%30.09 "HgN/A
9:00 AM43 °FPartly sunny.No wind93%30.09 "HgN/A
8:00 AM41 °FBroken clouds.No wind100%30.09 "HgN/A
7:00 AM39 °FSunny.No wind100%30.09 "HgN/A
6:00 AM37 °FClear.No wind100%30.07 "HgN/A
5:00 AM37 °FClear.No wind100%30.09 "HgN/A
4:00 AM37 °FClear.5 mph100%30.09 "HgN/A
3:00 AM36 °FClear.3 mph100%30.09 "HgN/A
2:00 AM37 °FClear.3 mph100%30.09 "HgN/A
1:00 AM37 °FClear.No wind100%30.09 "Hg2 mi
12:02 AM39 °FClear.No wind93%30.12 "HgN/A
11:00 PM
Jul 23
39 °FClear.No wind100%30.15 "Hg5 mi
10:04 PM37 °FClear.No wind100%30.15 "Hg4 mi
9:00 PM39 °FClear.5 mph100%30.18 "HgN/A
8:00 PM41 °FClear.No wind100%30.15 "HgN/A
7:00 PM45 °FClear.No wind93%30.15 "HgN/A
3:00 PM57 °FSunny.3 mph63%30.12 "HgN/A
2:00 PM55 °FSunny.5 mph67%30.15 "HgN/A
1:00 PM54 °FSunny.6 mph72%30.15 "HgN/A
12:00 PM52 °FSunny.3 mph72%30.21 "HgN/A
Weather by CustomWeather, © 2014

See weather overviewHow to use our weather pages